RS-39
1 38051U 11062C   14219.82727090  .00093257  00000-0  83625-3 0  7923
2 38051 051.6249 321.5625 0007398 359.1213 085.4911 15.67499975142198
E-STAR
1 38079U 12006C   14218.46642770  .00084941  50808-5  88438-3 0  9220
2 38079 069.4484 218.3648 0347099 281.9296 235.8594 15.15558175131065
GOLIAT
1 38085U 12006J   14219.75786375  .00072638  46165-5  80404-3 0  2522
2 38085 069.4526 223.2834 0372467 284.1691 071.8361 15.09225862131036
HORYU-2
1 38340U 12025D   14219.38941949  .00001988  00000-0  31988-3 0  9305
2 38340 098.2666 177.4682 0013357 018.1877 341.9808 14.72660949119331
RS-40
1 38735U 12041C   14219.73612567  .00000024  00000-0  10000-3 0  6423
2 38735 082.4750 255.3998 0017765 139.1217 221.1199 12.42561314 91986
PROITERES
1 38756U 12047B   14219.81558589  .00000463  00000-0  76710-4 0   875
2 38756 098.2284 308.9559 0012107 213.2259 146.8191 14.75031056102799
BEESAT-3
1 39134U 13015E   14219.53259899  .00006956  00000-0  48519-3 0  6664
2 39134 064.8634 335.9714 0031312 298.7821 061.0157 15.05737634 71393
BEESAT-2
1 39136U 13015G   14219.81770505  .00005999  00000-0  42763-3 0  6491
2 39136 064.8647 335.7084 0031502 299.0952 060.6957 15.05070851 71425
LO-75
1 39382U 13064C   14219.17848864  .00112430  00000-0  18314-2 0  3547
2 39382 040.4911 145.8548 0022720 251.3354 108.4819 15.51175354 39951
ZACUBE-1
1 39417U 13066B   14219.14403616  .00001752  00000-0  24041-3 0  3692
2 39417 097.7717 288.0095 0063608 077.9939 282.8383 14.78237062 38222
TRITON-1
1 39427U 13066M   14218.98746064  .00001673  00000-0  28604-3 0  2220
2 39427 097.7596 282.6454 0119267 088.6968 272.7927 14.65504645 37839
DELFIN3XT
1 39428U 13066N   14219.25579011  .00002918  00000-0  50664-3 0  2255
2 39428 097.7577 281.9763 0129819 090.5028 271.1101 14.63477098 37800
GOMX-1
1 39430U 13066Q   14219.74978454  .00001825  00000-0  35182-3 0  7097
2 39430 097.7512 279.9172 0157587 095.7367 266.1800 14.56939822 37720
MO-76
1 39436U 13066W   14218.98510115  .00014795  00000-0  14867-2 0  2905
2 39436 097.7752 291.8409 0027171 082.6447 277.7697 14.91072603 38443
LO-74
1 39440U 13066AA  14219.34742195  .00001850  00000-0  27826-3 0  2229
2 39440 097.7680 286.1393 0085341 080.4639 280.6284 14.73178345 38118
PUCPSAT-1
1 39442U 13066AC  14219.26963673  .00002833  00000-0  32436-3 0  2201
2 39442 097.7771 291.3365 0036002 077.8708 282.6603 14.86275780 37217
SHINAISAT
1 39572U 14009A   14219.24479619  .00064966  00000-0  45161-3 0  2195
2 39572 064.9978 225.1614 0019791 286.3095 073.5883 15.73759091 25134
OPUSAT
1 39575U 14009D   14205.03098383  .10394079  79053-5  15280-3 0  2959
2 39575 064.9843 263.3854 0017888 326.7083 036.3105 16.47207532 23119
TEIKYOSAT
1 39576U 14009E   14219.51591977  .00096239  00000-0  52393-3 0  2295
2 39576 065.0062 221.8073 0020603 296.3393 063.5613 15.79144330 25222
CO-77
1 39577U 14009F   14219.89924775  .00316867  47037-4  73152-3 0  2678
2 39577 065.0007 215.1920 0018544 291.3577 068.5565 15.96647621 25387
STARS-II
1 39579U 14009H   14116.06110564  .20186783  77451-5  52661-3 0  1329
2 39579 064.9886 219.0071 0013010 293.8065 069.6132 16.44611049  9028
SPROUT
1 39770U 14029E   14219.08777418  .00001070  00000-0  13909-3 0   917
2 39770 097.8728 315.4630 0011177 140.3356 219.8721 14.82683328 11085
POPSAT-HIP1
1 40028U 14033U   14219.82823794  .00001956  00000-0  23444-3 0  1448
2 40028 097.9803 114.5686 0016107 122.1456 238.1354 14.85152055  7244
EO-80
1 40032U 14033Y   14219.76840457  .00001984  00000-0  23919-3 0  1382
2 40032 097.9771 114.4673 0013393 117.7350 242.5257 14.84923626  7245
VELOX-1
1 40057U 14034E   14219.78146823  .00001993  00000-0  31067-3 0  1303
2 40057 098.2498 287.6105 0012519 152.1564 208.0308 14.74031169  5685
DAURIA DX 1
1 40071U 14037C   14219.75682357  .00001024  00000-0  14448-3 0  1013
2 40071 098.3997 272.7226 0009444 155.9040 204.2572 14.79530644  4438
UKUBE-1
1 40074U 14037F   14219.80689704  .00002059  00000-0  27697-3 0  1036
2 40074 098.4011 272.8208 0005757 157.0536 203.0903 14.80416407  4444
